User: anonymous   Login
Location: Raleigh
(35.7720°N, 78.6390°W)
Time: 15:20:55
(UTC-05:00)
Language:

FO-29 - Orbit

View from above orbital plane
View from above orbital plane
View from above satellite
View from above satellite

Ground track
Ground track

The orbit data is extracted from the following two-line orbital elements,

1 24278U 96046B   18020.85842795 -.00000002 +00000-0 +31335-4 0  9999
2 24278 098.5306 239.7962 0351150 133.0233 230.0898 13.53080693058061
Epoch (UTC): 20 January 2018 20:36:08
Eccentricity: 0.0351150
inclination: 98.5306°
perigee height: 800 km
apogee height: 1322 km
right ascension of ascending node: 239.7962°
argument of perigee: 133.0233°
revolutions per day: 13.53080693
mean anomaly at epoch: 230.0898°
orbit number at epoch: 5806

The dashed part of the orbit path shows where the satellite is in the earth's shadow,  

DLR